{"data":{"norad_id":58299,"epoch":"2026-09-21T19:18:42.948864Z","epoch_age_seconds":129231,"freshness":"FRESH","line1":"1 58299U 23174AV  26264.80466376  .00004262  00000+0  12569-3 0  9999","line2":"2 58299  97.3855 348.2705 0007452 152.9967 207.1666 15.35538521160056","mean_motion":15.35538521,"eccentricity":0.0007452,"inclination_deg":97.3855,"raan_deg":348.2705,"arg_perigee_deg":152.9967,"mean_anomaly_deg":207.1666,"bstar":0.00012569,"rev_number":16005,"period_min":93.778174907798,"perigee_km":454.22613286502,"apogee_km":464.41668087462,"semimajor_km":6837.4584068698,"source":"CELESTRAK","updated_at":"2026-09-22T09:00:26.580190Z"}}